Location: Widewater Village at Stafford
(38.4893°N, 77.3783°W)
Time: 13:18:23
(UTC+00:00)

Tiangong - Pass Details

Date: 28 November 2022
Orbit: 383 x 386 km, 41.5° (Epoch: 05 February)

Event Time Altitude Azimuth Distance (km) Brightness Sun altitude
Rises 23:32:53 0° 231° (SW) 2,243 2.8 -19.8°
Reaches altitude 10° 23:35:01 10° 223° (SW) 1,394 1.4 -20.2°
Enters shadow 23:37:19 33° 184° (S) 661 -0.9 -20.7°
